Location: Arrien
(43.3167°N, 0.1500°W)
Time: 22:58:25
(UTC+00:00)

Cosmos 1470 - Pass Details

Date: 15 October 2021
Orbit: 519 x 542 km, 82.5° (Epoch: 04 December)

Event Time Altitude Azimuth Distance (km) Brightness Sun altitude
Rises 18:03:19 0° 199° (SSW) 2,687 6.7 -9.1°
Reaches altitude 10° 18:05:31 10° 204° (SSW) 1,801 5.8 -9.5°
Maximum altitude 18:09:22 50° 281° (W) 694 3.8 -10.2°
Drops below altitude 10° 18:13:16 10° 358° (N) 1,816 5.5 -10.9°
Sets 18:15:30 0° 4° (N) 2,712 6.3 -11.3°
